YAOGAN 20C

Satellite information

Favourite Embed

Satellite Type and Status

PAYLOADIN ORBIT

Key statistics

Satellite YAOGAN 20C at a glance.

Uptime

4145

Days in orbit

Revolutions

≈ 13.5

Per day

Orbit

LEO

Low Earth Orbit

Inclination

63.4

Latest

Satellite identification and parameters

Extended collection of information and parameters for YAOGAN 20C.

Object identification

Identified? True

Debris? False

Object name: YAOGAN 20C

International designator: 2014-047C

Object number (NORAD): 40111

Object ID (CCSDS): 40111

Country: PEOPLES REPUBLIC OF CHINA (PRC)

Current information (Y/N): Y

RCS size: LARGE

Orbital parameters

Period: 107.029 minutes

Inclination: 63.3783 deg

SMA: 7467.271 km

Apoapsis: 1368.303 km

Periapsis: 809.969 km

RAAN: 137.9212 deg

Eccentricy: 0.03738547

Argument of periapsis: 14.1027 deg

Mean anomaly: 347.0101 deg

Mean motion: 13.45426248 rev/day

Mean motion (dot): -0.00000112 rev/day2

B* drag term: -0.000023472708 1/REarth

Two-line elements (TLE)

Creation date: Dec. 14, 2025, 3:07 a.m.

Reference frame: TEME

Reference center: EARTH

Epoch: Dec. 13, 2025, 4:32 p.m. UTC

TLE line 0: 0 YAOGAN 20C

TLE line 1: 1 40111U 14047C 25347.68908197 -.00000112 00000-0 -23473-4 0 9991

TLE line 2: 2 40111 63.3783 137.9212 0373855 14.1027 347.0101 13.45426248557338

Live tracking on map

Real-time ground track for satellite YAOGAN 20C.

In-orbit conjunctions

There are no conjunctions computed for YAOGAN 20C, at the moment. Check back to stay up to date, as we update our databases every day.

Go to all conjunctions

Associated space launch

YAOGAN 20C was lifted into orbit during the mission ‘Long March 4C | Yaogan 20A, Yaogan 20B, Yaogan 20C’, on board a Long March 4C space rocket.

The launch took place on Aug. 9, 2014, 5:45 a.m. from Launch Area 94 (SLS-2 / 603).

For more information about the launch, click the button.

Launch to space Long March 4C | Yaogan 20A, Yaogan 20B, Yaogan 20C
Long March 4C | Yaogan 20A, Yaogan 20B, Yaogan 20C

Agency: N/A

Status: Launch Successful

Launch date: Aug. 9, 2014, 5:45 a.m. UTC

Rocket: Long March 4C

Launch pad: Launch Area 94 (SLS-2 / 603)

Location: Jiuquan Satellite Launch Center, People's Republic of China

...

Latest news about this satellite

There are no fresh news available about this satellite. Check back as we update our databases every day.


Newsletter sign-up

Weekly statistics, charts and insights to help you stay on top of the space industry.